FW5436 Weather Reports


Display with metric or nautical units.
time (UTC)temp
F
wind
direction
speed
MPH
gust
MPH
rain 1hr
in
rain 24hr
in
rain mn
in
humidity
%
barometer
mb
20260507065724 63 90 3.0 11.0 0.00 0.00 0.65 96 995.7
20260507065212 63 68 3.0 11.0 0.00 0.00 0.65 96 996.2
20260507064702 63 0 4.0 13.0 0.00 0.00 0.65 96 996.6
20260507064152 63 45 3.0 16.0 0.00 0.00 0.65 96 996.3
20260507063642 63 68 7.0 16.0 0.00 0.00 0.65 96 996.8
20260507063132 63 90 6.0 16.0 0.00 0.00 0.65 96 996.6
20260507062622 63 45 7.0 11.0 0.00 0.00 0.65 97 996.3
20260507062111 63 90 4.0 11.0 0.00 0.00 0.65 97 996.2
20260507061602 63 293 4.0 11.0 0.00 0.00 0.65 97 995.9
20260507061051 63 68 4.0 11.0 0.00 0.00 0.65 97 995.9
20260507060542 63 68 2.0 11.0 0.00 0.00 0.65 97 995.6
20260507060031 63 45 2.0 6.0 0.00 0.00 0.65 97 996.1
20260507055521 63 68 3.0 6.0 0.00 0.00 0.65 97 995.8
20260507055011 63 135 2.0 4.0 0.00 0.00 0.65 97 996.0
20260507054500 64 135 1.0 7.0 0.00 0.00 0.65 97 995.5
20260507053446 64 203 1.0 2.0 0.00 0.00 0.65 97 995.4
20260507052829 64 23 2.0 6.0 0.01 0.71 0.65 97 995.8
20260507052319 64 68 2.0 6.0 0.01 0.71 0.65 97 996.1
20260507051808 64 45 2.0 6.0 0.01 0.71 0.65 97 996.3
20260507051258 64 0 2.0 6.0 0.01 0.71 0.65 97 996.5
20260507050749 64 68 3.0 4.0 0.02 0.71 0.65 97 996.7
20260507050238 64 68 3.0 4.0 0.02 0.71 0.65 97 996.7
20260507045728 64 45 2.0 6.0 0.04 0.71 0.65 97 996.5
20260507045218 64 23 1.0 6.0 0.05 0.71 0.65 97 996.7
20260507043647 64 90 2.0 4.0 0.06 0.70 0.64 97 997.3
20260507043137 64 90 1.0 2.0 0.06 0.70 0.64 97 997.3
20260507042632 64 68 0.0 2.0 0.07 0.70 0.64 97 997.1
20260507042117 64 68 0.0 2.0 0.07 0.70 0.64 96 997.3
20260507041607 64 23 1.0 4.0 0.14 0.70 0.64 96 997.6
20260507041057 64 180 1.0 4.0 0.24 0.69 0.63 96 997.9
20260507040547 64 113 1.0 4.0 0.44 0.69 0.63 96 998.0
20260507035526 64 113 1.0 2.0 0.64 0.67 0.61 96 997.2
20260507035018 64 90 1.0 4.0 0.63 0.66 0.60 96 997.0
20260507034513 64 68 0.0 4.0 0.61 0.65 0.59 96 997.1
20260507033956 64 248 0.0 2.0 0.60 0.64 0.58 96 996.9
20260507033446 64 68 1.0 2.0 0.60 0.64 0.58 96 997.1
20260507032936 64 68 1.0 4.0 0.60 0.64 0.58 96 997.4
20260507031915 65 90 3.0 11.0 0.58 0.61 0.56 95 998.2
20260507031405 65 90 2.0 16.0 0.53 0.56 0.50 95 998.1
20260507030344 66 45 6.0 16.0 0.15 0.18 0.12 92 1000.1
20260507025834 67 68 6.0 13.0 0.02 0.05 0.05 90 999.2
20260507025325 72 68 6.0 13.0 0.01 0.04 0.04 87 999.4
20260507024814 71 180 4.0 13.0 0.01 0.04 0.04 90 996.8
20260507024304 71 0 4.0 11.0 0.01 0.04 0.04 91 996.4
20260507023754 70 45 5.0 14.0 0.01 0.04 0.04 91 996.8
20260507023244 70 113 6.0 14.0 0.01 0.04 0.04 92 996.9
20260507022735 70 90 3.0 16.0 0.01 0.04 0.04 92 996.8
20260507022225 69 90 4.0 16.0 0.01 0.04 0.04 92 996.6
20260507021713 69 45 5.0 13.0 0.00 0.02 0.02 92 996.5
20260507021203 69 180 5.0 15.0 0.00 0.02 0.02 92 996.7
20260507020143 69 158 4.0 15.0 0.00 0.02 0.02 93 996.5
20260507015633 69 315 5.0 16.0 0.00 0.02 0.02 93 996.2
20260507014103 68 180 4.0 15.0 0.00 0.02 0.02 93 996.4
20260507013552 68 315 4.0 20.0 0.00 0.02 0.02 94 996.7
20260507012532 67 158 2.0 11.0 0.00 0.02 0.02 94 997.1
20260507012021 67 180 4.0 11.0 0.00 0.02 0.02 94 997.0
20260507011519 67 45 4.0 14.0 0.00 0.02 0.02 94 997.0
20260507011002 67 270 4.0 14.0 0.00 0.02 0.02 94 996.6
20260507010452 67 158 4.0 11.0 0.00 0.02 0.02 94 996.8
20260507005941 66 203 3.0 11.0 0.00 0.02 0.02 94 997.1
20260507004920 66 293 4.0 13.0 0.00 0.02 0.02 95 997.0
20260507004410 66 45 4.0 13.0 0.00 0.02 0.02 95 997.2
20260507003901 66 68 3.0 14.0 0.00 0.02 0.02 95 997.2
20260507003350 66 113 3.0 14.0 0.00 0.02 0.02 95 997.4
20260507002841 66 23 4.0 11.0 0.00 0.02 0.02 95 997.4
20260507002330 65 68 4.0 11.0 0.00 0.02 0.02 95 997.3
20260507001827 65 225 4.0 11.0 0.00 0.02 0.02 96 997.1
20260507001310 65 203 4.0 14.0 0.00 0.02 0.02 96 996.9
20260507000801 65 68 4.0 14.0 0.00 0.02 0.02 96 996.9
20260507000250 65 158 4.0 13.0 0.00 0.02 0.02 96 997.0
20260506235740 65 315 4.0 16.0 0.00 0.02 0.02 96 997.6
20260506235230 65 203 3.0 16.0 0.00 0.02 0.02 96 997.5
20260506234719 65 135 5.0 15.0 0.00 0.02 0.02 96 997.8
20260506234209 65 0 4.0 17.0 0.00 0.02 0.02 96 998.0
20260506233659 65 90 4.0 17.0 0.00 0.02 0.02 96 998.2
20260506233149 65 113 5.0 18.0 0.00 0.02 0.02 96 998.4
20260506232129 65 203 5.0 18.0 0.00 0.02 0.02 96 998.8
20260506231619 65 203 6.0 16.0 0.00 0.02 0.02 96 999.2
20260506231108 65 248 7.0 16.0 0.00 0.02 0.02 96 999.3
20260506230558 65 225 3.0 13.0 0.00 0.02 0.02 96 999.6
20260506225538 65 113 2.0 16.0 0.00 0.02 0.02 96 999.9
20260506225027 65 293 3.0 15.0 0.00 0.02 0.02 96 1000.2
20260506224522 65 293 4.0 15.0 0.00 0.02 0.02 96 1000.2
20260506224008 65 225 6.0 16.0 0.00 0.02 0.02 96 1000.6
20260506223457 65 45 5.0 16.0 0.00 0.02 0.02 96 1000.9
20260506222438 65 90 3.0 9.0 0.00 0.02 0.02 96 1001.0
20260506221926 65 180 2.0 11.0 0.00 0.02 0.02 96 1001.1
20260506220907 65 293 3.0 11.0 0.00 0.02 0.02 96 1001.2
20260506220356 65 158 3.0 11.0 0.00 0.02 0.02 96 1001.6
20260506215846 65 248 3.0 11.0 0.00 0.02 0.02 96 1002.0
20260506215336 65 45 2.0 11.0 0.00 0.02 0.02 96 1002.2
20260506214826 65 158 4.0 11.0 0.00 0.02 0.02 96 1002.4
20260506214316 65 293 2.0 8.0 0.00 0.02 0.02 96 1002.6
20260506213806 65 23 2.0 9.0 0.00 0.02 0.02 96 1002.8
20260506213256 65 203 3.0 11.0 0.00 0.02 0.02 96 1003.0
20260506211725 65 225 2.0 7.0 0.00 0.02 0.02 96 1003.3
20260506211214 65 0 3.0 8.0 0.00 0.02 0.02 96 1003.6
20260506210154 64 158 2.0 7.0 0.00 0.02 0.02 96 1003.7
20260506205645 64 135 3.0 7.0 0.00 0.02 0.02 96 1003.7
20260506204624 64 45 2.0 7.0 0.00 0.02 0.02 96 1004.0
20260506204114 64 180 2.0 7.0 0.00 0.02 0.02 96 1004.1
20260506203607 64 90 2.0 7.0 0.00 0.02 0.02 96 1004.3
20260506203054 64 203 2.0 7.0 0.00 0.02 0.02 96 1004.4
20260506202544 64 248 2.0 4.0 0.00 0.02 0.02 96 1004.5
20260506201524 64 135 1.0 4.0 0.00 0.02 0.02 96 1004.3
20260506201014 64 270 0.0 4.0 0.00 0.02 0.02 96 1004.5
20260506195953 64 338 0.0 4.0 0.00 0.02 0.02 96 1004.4
20260506195443 64 23 1.0 4.0 0.00 0.02 0.02 96 1004.5
20260506194932 64 203 1.0 4.0 0.00 0.02 0.02 96 1004.5
20260506193402 64 180 2.0 8.0 0.00 0.02 0.02 96 1004.9
20260506192853 64 338 2.0 8.0 0.00 0.02 0.02 96 1005.5
20260506192342 64 0 1.0 9.0 0.00 0.02 0.02 96 1005.4
20260506191832 65 270 3.0 13.0 0.01 0.02 0.02 96 1005.5
20260506191321 65 68 2.0 13.0 0.01 0.02 0.02 96 1005.7
20260506190812 64 270 3.0 11.0 0.01 0.02 0.02 96 1005.3
20260506190302 64 248 3.0 11.0 0.01 0.02 0.02 96 1006.0
20260506185751 64 23 2.0 8.0 0.01 0.02 0.02 96 1005.9
20260506185241 65 248 2.0 6.0 0.01 0.02 0.02 96 1006.1
20260506184221 64 203 2.0 4.0 0.01 0.02 0.02 95 1006.2
20260506183713 64 23 0.0 2.0 0.01 0.02 0.02 96 1007.1
20260506183201 64 293 1.0 7.0 0.01 0.02 0.02 95 1006.4
20260506182140 64 315 0.0 4.0 0.02 0.02 0.02 95 1007.2
20260506181120 64 225 1.0 4.0 0.01 0.01 0.01 95 1006.6
20260506180100 64 0 1.0 4.0 0.01 0.01 0.01 95 1007.3
20260506175554 64 203 1.0 4.0 0.01 0.01 0.01 95 1007.1
20260506175040 64 23 1.0 4.0 0.01 0.01 0.01 95 1006.8
20260506174529 64 248 0.0 4.0 0.01 0.01 0.01 95 1006.5
20260506173509 65 90 2.0 4.0 0.01 0.01 0.01 94 1006.7
20260506172448 64 315 0.0 4.0 0.01 0.01 0.01 94 1007.2
20260506171938 64 315 0.0 4.0 0.00 0.00 0.00 94 1007.3
20260506170917 64 315 0.0 4.0 0.00 0.00 0.00 94 1007.8
20260506165351 64 248 1.0 4.0 0.00 0.00 0.00 93 1008.0
20260506164837 64 248 1.0 4.0 0.00 0.00 0.00 93 1008.0
20260506164329 64 270 1.0 4.0 0.00 0.00 0.00 93 1008.6
20260506163307 64 135 2.0 4.0 0.00 0.00 0.00 93 1009.0
20260506162756 64 315 0.0 4.0 0.00 0.00 0.00 93 1009.0
20260506162248 64 68 1.0 4.0 0.00 0.00 0.00 93 1008.4
20260506161737 64 293 0.0 4.0 0.00 0.00 0.00 92 1008.4
20260506161232 64 248 1.0 4.0 0.00 0.00 0.00 92 1008.8
20260506160717 64 270 1.0 4.0 0.00 0.00 0.00 92 1009.1
20260506160207 64 293 1.0 6.0 0.00 0.00 0.00 92 1009.2
20260506155657 64 338 2.0 6.0 0.00 0.00 0.00 91 1009.9
20260506155146 64 23 1.0 4.0 0.00 0.00 0.00 91 1009.9
20260506154636 64 225 1.0 4.0 0.00 0.00 0.00 91 1009.9
20260506154125 64 158 1.0 6.0 0.00 0.00 0.00 90 1010.0
20260506153615 64 270 1.0 7.0 0.00 0.00 0.00 90 1010.1
20260506152555 65 338 1.0 7.0 0.00 0.00 0.00 89 1010.2
20260506151535 66 203 2.0 7.0 0.00 0.00 0.00 87 1010.4
20260506151024 66 23 2.0 8.0 0.00 0.00 0.00 86 1010.5
20260506150515 67 135 1.0 8.0 0.00 0.00 0.00 86 1010.3
20260506150005 67 225 2.0 6.0 0.00 0.00 0.00 85 1010.7
20260506144944 68 68 2.0 4.0 0.00 0.00 0.00 83 1010.4
20260506144434 68 45 1.0 4.0 0.00 0.00 0.00 82 1010.5
20260506143924 68 338 1.0 8.0 0.00 0.00 0.00 82 1010.3
20260506143414 68 315 2.0 8.0 0.00 0.00 0.00 82 1010.7
20260506142903 68 45 2.0 6.0 0.00 0.00 0.00 82 1010.9
20260506142354 68 45 1.0 6.0 0.00 0.00 0.00 82 1011.2
20260506141843 68 180 1.0 4.0 0.00 0.00 0.00 82 1011.3
20260506141333 67 315 1.0 4.0 0.00 0.00 0.00 83 1011.3
20260506140823 67 225 1.0 4.0 0.00 0.00 0.00 83 1011.3
20260506140313 66 23 1.0 4.0 0.00 0.00 0.00 84 1011.4
20260506135253 65 135 1.0 4.0 0.00 0.00 0.00 86 1011.6
20260506134744 66 248 1.0 6.0 0.00 0.00 0.00 86 1011.3
20260506134233 65 315 1.0 6.0 0.00 0.00 0.00 86 1011.7
20260506133722 66 270 2.0 6.0 0.00 0.00 0.00 87 1011.6
20260506133212 65 113 2.0 4.0 0.00 0.00 0.00 88 1011.9
20260506132703 65 0 1.0 6.0 0.00 0.00 0.00 88 1011.9
20260506132152 64 270 2.0 6.0 0.00 0.00 0.00 88 1012.0
20260506130018 64 248 2.0 7.0 0.00 0.00 0.00 91 1012.0
20260506125509 64 248 2.0 6.0 0.00 0.00 0.00 92 1012.1
20260506124958 63 135 2.0 6.0 0.00 0.00 0.00 94 1012.2
20260506122918 62 270 1.0 4.0 0.00 0.00 0.00 95 1012.3
20260506122408 62 23 0.0 4.0 0.00 0.00 0.00 96 1012.4
20260506121857 62 248 1.0 0.0 0.00 0.00 0.00 96 1012.5
20260506120730 61 68 0.0 2.0 0.00 0.00 0.00 96 1012.8
20260506120220 61 180 0.0 2.0 0.00 0.00 0.00 96 1012.9
20260506115159 61 45 0.0 2.0 0.00 0.00 0.00 97 1012.7
20260506114650 61 315 0.0 2.0 0.00 0.00 0.00 97 1012.7
20260506114139 61 90 0.0 2.0 0.00 0.00 0.00 97 1012.6
20260506113628 61 113 0.0 2.0 0.00 0.00 0.00 97 1012.7
20260506113118 61 0 1.0 2.0 0.00 0.00 0.00 97 1013.0
20260506112608 61 248 0.0 2.0 0.00 0.00 0.00 97 1012.8
20260506112058 61 248 1.0 2.0 0.00 0.00 0.00 97 1012.7
20260506111548 61 0 0.0 2.0 0.00 0.00 0.00 97 1012.8
20260506111037 60 90 0.0 2.0 0.00 0.00 0.00 97 1013.0
20260506110527 60 248 1.0 2.0 0.00 0.00 0.00 97 1012.7
20260506110017 60 68 0.0 2.0 0.00 0.00 0.00 97 1012.8
20260506105507 60 180 0.0 2.0 0.00 0.00 0.00 97 1012.8
20260506104957 60 293 0.0 4.0 0.00 0.00 0.00 97 1012.5
20260506104447 60 203 2.0 4.0 0.00 0.00 0.00 97 1012.8
20260506103936 60 293 1.0 4.0 0.00 0.00 0.00 97 1012.8
20260506102917 60 203 0.0 2.0 0.00 0.00 0.00 97 1012.9
20260506102406 59 203 0.0 2.0 0.00 0.00 0.00 97 1013.1
20260506101857 59 293 0.0 2.0 0.00 0.00 0.00 97 1012.9
20260506101346 59 225 0.0 2.0 0.00 0.00 0.00 97 1013.0
20260506100836 59 248 0.0 2.0 0.00 0.00 0.00 97 1013.2
20260506100327 59 270 0.0 2.0 0.00 0.00 0.00 97 1013.4
20260506095306 59 158 0.0 2.0 0.00 0.00 0.00 97 1012.9
20260506094755 59 203 0.0 2.0 0.00 0.00 0.00 97 1013.0
20260506094245 59 315 0.0 2.0 0.00 0.00 0.00 97 1013.2
20260506093734 59 158 0.0 2.0 0.00 0.00 0.00 97 1013.2
20260506093225 59 203 0.0 2.0 0.00 0.00 0.00 97 1013.4
20260506092714 59 225 0.0 2.0 0.00 0.00 0.00 97 1013.2
20260506092204 59 203 0.0 2.0 0.00 0.00 0.00 97 1013.4
20260506091657 59 225 0.0 0.0 0.00 0.00 0.00 97 1013.3
20260506091144 58 270 0.0 2.0 0.00 0.00 0.00 97 1013.3
20260506090641 59 338 0.0 2.0 0.00 0.00 0.00 97 1013.3
20260506090124 59 203 0.0 2.0 0.00 0.00 0.00 97 1013.4
20260506085614 58 203 0.0 2.0 0.00 0.00 0.00 97 1013.3
20260506085104 59 203 0.0 2.0 0.00 0.00 0.00 97 1013.6
20260506084554 59 203 0.0 2.0 0.00 0.00 0.00 97 1013.6
20260506084043 59 203 0.0 2.0 0.00 0.00 0.00 97 1013.7
20260506083533 59 203 0.0 2.0 0.00 0.00 0.00 97 1013.7
20260506082514 59 203 0.0 2.0 0.00 0.00 0.00 97 1014.0
20260506082004 59 180 0.0 2.0 0.00 0.00 0.00 97 1014.0
20260506081453 58 180 0.0 2.0 0.00 0.00 0.00 97 1014.1
20260506080943 58 180 0.0 2.0 0.00 0.00 0.00 97 1014.0
20260506080433 58 270 0.0 0.0 0.00 0.00 0.00 97 1014.0
20260506073331 60 203 0.0 2.0 0.00 0.00 0.00 97 1013.3
20260506072822 60 113 0.0 4.0 0.00 0.00 0.00 97 1013.6
20260506072311 60 113 0.0 4.0 0.00 0.00 0.00 97 1013.4
20260506071801 60 68 0.0 2.0 0.00 0.00 0.00 97 1013.5
20260506070740 60 248 0.0 2.0 0.00 0.00 0.00 97 1013.3